[TLELIST] Archives

 

[TLELIST] Current TLEs

March 23rd 2023 PDT

HST 1 20580U 90037B 23081.79479084 .00005842 00000-0 31702-3 0 9991 2 20580 28.4692 122.5230 0002923 161.2445 349.4656 15.12439732608369 ISS (ZARYA) 1 25544U 98067A 23082.39717484 .00016571 00000-0 30373-3 0 9997 2 25544 51.6420 33.5716 0006039 122.8804 22.8850 15.49417071388483 CXO 1 25867U 99040B 23083.34371182 .00000827 00000-0 00000-0 0 9992 2 25867 38.6260 207.5581 9030983 253.7295 0.2105 0.37809275 12864 ...Continue Reading

[TLELIST] Current TLEs

March 23rd 2023 PDT

HST 1 20580U 90037B 23081.79479084 .00005842 00000-0 31702-3 0 9991 2 20580 28.4692 122.5230 0002923 161.2445 349.4656 15.12439732608369 ISS (ZARYA) 1 25544U 98067A 23082.39717484 .00016571 00000-0 30373-3 0 9997 2 25544 51.6420 33.5716 0006039 122.8804 22.8850 15.49417071388483 CXO 1 25867U 99040B 23083.34371182 .00000827 00000-0 00000-0 0 9992 2 25867 38.6260 207.5581 9030983 253.7295 0.2105 0.37809275 12864 ...Continue Reading

[TLELIST] Current TLEs

March 22nd 2023 PDT

HST 1 20580U 90037B 23080.87465102 .00005627 00000-0 30507-3 0 9998 2 20580 28.4694 128.6379 0002961 151.9383 18.8697 15.12428590608228 ISS (ZARYA) 1 25544U 98067A 23081.36343941 .00015575 00000-0 28639-3 0 9991 2 25544 51.6416 38.6887 0006071 118.7594 17.1799 15.49378099388327 CXO 1 25867U 99040B 23080.70076181 .00000923 00000-0 00000-0 0 9997 2 25867 38.6737 207.8868 9026344 253.4689 0.4032 0.37809169 12856 ...Continue Reading

[TLELIST] Current TLEs

March 21st 2023 PDT

HST 1 20580U 90037B 23079.88417470 .00005824 00000-0 31619-3 0 9996 2 20580 28.4694 135.2198 0003006 142.0112 25.2081 15.12417620608077 ISS (ZARYA) 1 25544U 98067A 23080.38988954 .00015304 00000-0 28187-3 0 9999 2 25544 51.6415 43.5078 0006133 115.2181 346.9578 15.49345862388179 CXO 1 25867U 99040B 23080.70076181 .00000923 00000-0 00000-0 0 9997 2 25867 38.6737 207.8868 9026344 253.4689 0.4032 0.37809169 12856 ...Continue Reading

[TLELIST] Current TLEs

March 21st 2023 PDT

HST 1 20580U 90037B 23079.88417470 .00005824 00000-0 31619-3 0 9996 2 20580 28.4694 135.2198 0003006 142.0112 25.2081 15.12417620608077 ISS (ZARYA) 1 25544U 98067A 23080.38988954 .00015304 00000-0 28187-3 0 9999 2 25544 51.6415 43.5078 0006133 115.2181 346.9578 15.49345862388179 CXO 1 25867U 99040B 23080.70076181 .00000923 00000-0 00000-0 0 9997 2 25867 38.6737 207.8868 9026344 253.4689 0.4032 0.37809169 12856 ...Continue Reading

[TLELIST] Current TLEs

March 21st 2023 PDT

HST 1 20580U 90037B 23079.88417470 .00005824 00000-0 31619-3 0 9996 2 20580 28.4694 135.2198 0003006 142.0112 25.2081 15.12417620608077 ISS (ZARYA) 1 25544U 98067A 23080.38988954 .00015304 00000-0 28187-3 0 9999 2 25544 51.6415 43.5078 0006133 115.2181 346.9578 15.49345862388179 CXO 1 25867U 99040B 23080.70076181 .00000923 00000-0 00000-0 0 9997 2 25867 38.6737 207.8868 9026344 253.4689 0.4032 0.37809169 12856 ...Continue Reading

[TLELIST] Current TLEs

March 20th 2023 PDT

HST 1 20580U 90037B 23079.26785244 .00005758 00000-0 31257-3 0 9999 2 20580 28.4693 139.3154 0003010 135.8096 269.0571 15.12410707608249 ISS (ZARYA) 1 25544U 98067A 23079.42898256 .00015754 00000-0 29018-3 0 9990 2 25544 51.6412 48.2628 0006159 112.0657 27.0298 15.49317299388023 CXO 1 25867U 99040B 23080.70076181 .00000923 00000-0 00000-0 0 9997 2 25867 38.6737 207.8868 9026344 253.4689 0.4032 0.37809169 12856 ...Continue Reading

[TLELIST] Current TLEs

March 20th 2023 PDT

HST 1 20580U 90037B 23079.26785244 .00005758 00000-0 31257-3 0 9999 2 20580 28.4693 139.3154 0003010 135.8096 269.0571 15.12410707608249 ISS (ZARYA) 1 25544U 98067A 23079.42898256 .00015754 00000-0 29018-3 0 9990 2 25544 51.6412 48.2628 0006159 112.0657 27.0298 15.49317299388023 CXO 1 25867U 99040B 23080.70076181 .00000923 00000-0 00000-0 0 9997 2 25867 38.6737 207.8868 9026344 253.4689 0.4032 0.37809169 12856 ...Continue Reading

[TLELIST] Current TLEs

March 19th 2023 PDT

HST 1 20580U 90037B 23077.90401484 .00005112 00000-0 27649-3 0 9993 2 20580 28.4693 148.3781 0003059 122.8558 41.6335 15.12394587607773 ISS (ZARYA) 1 25544U 98067A 23078.39998922 .00017686 00000-0 32499-3 0 9999 2 25544 51.6406 53.3563 0006222 109.9442 46.1828 15.49290675387869 CXO 1 25867U 99040B 23080.70071035 .00000923 00000-0 00000+0 0 9999 2 25867 38.6756 207.8928 9026323 253.4614 0.3970 0.37811020 24008 ...Continue Reading

[TLELIST] Current TLEs

March 19th 2023 PDT

HST 1 20580U 90037B 23077.90401484 .00005112 00000-0 27649-3 0 9993 2 20580 28.4693 148.3781 0003059 122.8558 41.6335 15.12394587607773 ISS (ZARYA) 1 25544U 98067A 23078.39998922 .00017686 00000-0 32499-3 0 9999 2 25544 51.6406 53.3563 0006222 109.9442 46.1828 15.49290675387869 CXO 1 25867U 99040B 23080.70071035 .00000923 00000-0 00000+0 0 9999 2 25867 38.6756 207.8928 9026323 253.4614 0.3970 0.37811020 24008 ...Continue Reading
  • This mailing list is a public mailing list - anyone may join or leave, at any time.
  • This mailing list is announce-only.

International Space Station (ISS) / Hubble Space Telescope (HST) / Chandra X-Ray Observatory Orbital Data via EMAIL

Privacy Policy:

Private list